Regional Weather Roundup
Issued by NWS

Home | Current Version | Previous Version | Text Only | Print | Product List | Glossary On
Versions: 1 2 3 4 5 6 7 8 9 10 11 12 13 14 15 16 17 18 19 20 21 22 23 24 25 26 27 28
000
ASUS45 KPSR 241310
RWRAZ

ARIZONA HOURLY REGIONAL WEATHER ROUNDUP
NATIONAL WEATHER SERVICE PHOENIX AZ
600 AM MST TUE APR 24 2018

NOTE: FAIR INDICATES FEW OR NO CLOUDS BELOW 12,000 FEET WITH NO
SIGNIFICANT WEATHER AND/OR OBSTRUCTIONS TO VISIBILITY.

AZZ001>003-036-241400-
NORTHWEST ARIZONA

CITY           SKY/WX    TMP DP  RH WIND       PRES   REMARKS
BULLHEAD CITY  CLEAR     72  23  16 E5        29.88R
KINGMAN        PTCLDY    62  22  21 SE12      30.03R
$$

AZZ004>008-015-016-018-241400-
NORTH CENTRAL ARIZONA

CITY           SKY/WX    TMP DP  RH WIND       PRES   REMARKS
GRAND CANYON   MOCLDY    28  14  55 CALM      30.21S
WILLIAMS       MOCLDY    37  18  44 S9        30.19S WCI  31
PRESCOTT       MOCLDY    48  25  40 S7        30.13R
FLAGSTAFF      MOCLDY    47  19  33 W3        30.22S
PAYSON         PTCLDY    55  18  22 NE3       30.13S
PAGE           PTCLDY    59  25  27 SE3       30.07R
$$

AZZ009>014-017-241400-
NORTHEAST ARIZONA

CITY           SKY/WX    TMP DP  RH WIND       PRES   REMARKS
WINSLOW        MOCLDY    51  19  28 CALM      30.13R
SAINT JOHNS    MOCLDY    47  21  35 S6        30.16R
WINDOW ROCK    PTCLDY    36  12  37 CALM      30.20R
SHOW LOW       MOCLDY    45  16  31 S7        30.22R
$$

AZZ540-542>544-546-548-241400-
GREATER PHOENIX AREA

CITY           SKY/WX    TMP DP  RH WIND       PRES   REMARKS
PHOENIX        MOCLDY    68  30  24 E8        29.91R
BUCKEYE        PTCLDY    63  23  22 N8        29.92R
DEER VALLEY    PTCLDY    66  25  21 E7        29.93R
SCOTTSDALE     PTCLDY    66  36  32 CALM      29.95R
MESA-FALCON    MOCLDY    72  27  18 NE3       29.94
MESA-GATEWAY   PTCLDY    64  25  22 E9        29.94R
CHANDLER       MOCLDY    64  32  29 N5        29.93
$$

AZZ539-553-241400-
SOUTHWEST MARICOPA COUNTY AND PINAL COUNTY

CITY           SKY/WX    TMP DP  RH WIND       PRES   REMARKS
CASA GRANDE    CLEAR     63  27  25 NE5       29.95R
$$

AZZ503-504-507>509-241400-
SOUTHEAST ARIZONA

CITY           SKY/WX    TMP DP  RH WIND       PRES   REMARKS
TUCSON         CLEAR     62  25  24 SE12      30.02S
RYAN FIELD     CLEAR     57  27  30 SE5       30.01
NOGALES        PTCLDY    50  26  39 NE3       30.07R
DOUGLAS        PTCLDY    52  19  27 E5        30.10R
SAFFORD        MOCLDY    57  19  22 S5        30.03R
$$

AZZ532-241400-
SOUTHWEST ARIZONA

CITY           SKY/WX    TMP DP  RH WIND       PRES   REMARKS
YUMA           CLEAR     66  35  31 CALM      29.87R
$$

CAZ041-043-047-048-061-525>527-560>570-241400-
SOUTHERN CALIFORNIA

CITY           SKY/WX    TMP DP  RH WIND       PRES   REMARKS
DOWNTOWN L.A.  CLOUDY    53  51  93 CALM      30.00  FOG
L.A. AIRPORT   CLOUDY    55  52  89 S6        30.01R FOG
SAN DIEGO      CLOUDY    57  54  89 NE3       30.02  FOG
BURBANK        CLEAR     55  52  89 S3        29.99R
ONTARIO        MOCLDY    56  48  74 CALM      29.98S
RIVERSIDE      CLEAR     53  44  71 CALM      29.99R
PALM SPRINGS   CLEAR     70  44  39 CALM      29.89R
EL CENTRO NAS  PTCLDY    64  42  44 S5        29.86R
IMPERIAL       CLEAR     63  43  48 S3        29.84R
BLYTHE         CLEAR     68  32  26 NW6       29.87R
NEEDLES        CLEAR     72  25  17 CALM      29.89R
$$

NVZ020-UTZ003-241400-
SOUTHERN NEVADA-UTAH

CITY           SKY/WX    TMP DP  RH WIND       PRES   REMARKS
LAS VEGAS      PTCLDY    70  26  19 CALM      29.97R
SALT LAKE CITY CLEAR     43  36  76 SW3       30.27R
$$

NMZ009-TXZ055-241400-
NEW MEXICO-WEST TEXAS

CITY           SKY/WX    TMP DP  RH WIND       PRES   REMARKS
ALBUQUERQUE    MOCLDY    52  18  26 SE6       30.13R
EL PASO        MOCLDY    59  27  29 CALM      30.05R
$$


........................KEY........................
SKY/WX - SKY CONDITION/WEATHER
TMP    - TEMPERATURE IN FAHRENHEIT
DP     - DEW POINT IN FAHRENHEIT
RH     - RELATIVE HUMIDITY IN PERCENT
WIND   - DIRECTION AND SPEED IN MILES PER HOUR (MPH)
VRB    - VARIABLE WIND DIRECTION
PRES   - MEAN SEA LEVEL PRESSURE IN INCHES OF MERCURY
         F - FALLING PRESSURE   R - RISING PRESSURE
         S - STEADY PRESSURE
VSB    - VISIBILITY IN MILES
HX     - HEAT INDEX IN FAHRENHEIT
WCI    - WIND CHILL INDEX IN FAHRENHEIT
TC     - TEMPERATURE IN CELSIUS WHICH IS ALSO KNOWN AS
         TEMPERATURE IN CENTIGRADE
AFB    - AIR FORCE BASE
         LUKE AFB IS LUKE AIR FORCE BASE
         DAVIS-MONTHAN IS DAVIS-MONTHAN AIR FORCE BASE
NAS    - NAVAL AIR STATION
         EL CENTRO NAS IS EL CENTRO NAVAL AIR STATION
N/A    - NOT AVAILABLE





USA.gov is the U.S. government's official web portal to all federal, state and local government web resources and services.